Kansas City, MO

2:36 AM CDT on September 25, 2016 (GMT -0500)
Kansas City International

Weather History for KMCI - March, 2014

Change the Weather History Date:

Thursday, March 13, 2014

  Actual Average Record
Temperature  
Mean Temperature 50 °F 43 °F  
Max Temperature 68 °F 54 °F 82 °F (1918)
Min Temperature 31 °F 32 °F 10 °F (1975)
Degree Days  
Heating Degree Days 15 22  
Month to date heating degree days 395 314  
Since 1 July heating degree days 4961 4359  
Cooling Degree Days 0 0  
Month to date cooling degree days 0 0  
Year to date cooling degree days 0 0  
Moisture  
Dew Point 23 °F    
Average Humidity 43    
Maximum Humidity 69    
Minimum Humidity 16    
Precipitation  
Precipitation 0.00 in 0.07 in 1.50 in (1922)
Month to date precipitation 0.73 0.86  
Year to date precipitation 2.48 3.39  
Snow  
Snow 0.00 in 0.10 in 2.30 in (1956)
Month to date snowfall 3.1 1.1  
Since 1 July snowfall 25.7 17.3  
Snow Depth 0.00 in    
Sea Level Pressure  
Sea Level Pressure 29.99 in    
Wind  
Wind Speed 13 mph (SW)    
Max Wind Speed 23 mph    
Max Gust Speed 29 mph    
Visibility 10 miles    
Events      
T = Trace of Precipitation, MM = Missing Value Source: NWS Daily Summary

Daily Weather History Graph

Daily Weather History Graph

Search for Another Location

Airport or City:

Trip Planner

Search our weather history database for the weather conditions in past years. The results will help you decide how hot, cold, wet, or windy it might be!

Date:

Astronomy

Mar. 13, 2014 Rise Set
Actual Time 7:33 AM CDT 7:23 PM CDT
Civil Twilight 7:06 AM CDT 7:50 PM CDT
Nautical Twilight 6:35 AM CDT 8:21 PM CDT
Astronomical Twilight 6:04 AM CDT 8:53 PM CDT
Moon 4:51 PM CDT (3/13) 5:39 AM CDT (3/13)
Length of Visible Light 12h 43m
Length of Day
11h 50m
Waxing Gibbous, 91% of the Moon is Illuminated
Mar 13
Waxing Gibbous
Mar 16
Full
Mar 23
Last Quarter
Mar 30
New
Apr 7
First Quarter

Hourly Weather History & Observations

Time (CDT) Temp. Windchill Dew Point Humidity Pressure Visibility Wind Dir Wind Speed Gust Speed Precip Events Conditions
12:53 AM 34.0 °F 27.2 °F 23.0 °F 64% 30.12 in 10.0 mi South 8.1 mph - N/A   Clear
1:53 AM 35.1 °F 29.3 °F 23.0 °F 61% 30.11 in 10.0 mi SSW 6.9 mph - N/A   Clear
2:53 AM 33.1 °F 26.1 °F 23.0 °F 66% 30.09 in 10.0 mi SSW 8.1 mph - N/A   Clear
3:53 AM 33.1 °F 25.5 °F 24.1 °F 70% 30.07 in 10.0 mi South 9.2 mph - N/A   Clear
4:53 AM 34.0 °F 27.2 °F 23.0 °F 64% 30.06 in 10.0 mi SSW 8.1 mph - N/A   Clear
5:53 AM 34.0 °F 26.6 °F 23.0 °F 64% 30.06 in 10.0 mi SW 9.2 mph - N/A   Clear
6:53 AM 34.0 °F 26.6 °F 23.0 °F 64% 30.06 in 10.0 mi WSW 9.2 mph - N/A   Clear
7:53 AM 33.1 °F 26.1 °F 23.0 °F 66% 30.07 in 10.0 mi SW 8.1 mph - N/A   Clear
8:53 AM 39.0 °F 33.4 °F 25.0 °F 57% 30.08 in 10.0 mi WSW 8.1 mph - N/A   Clear
9:53 AM 44.1 °F 38.6 °F 25.0 °F 47% 30.08 in 10.0 mi WSW 10.4 mph - N/A   Clear
10:53 AM 50.0 °F - 28.0 °F 43% 30.07 in 10.0 mi WSW 6.9 mph - N/A   Clear
11:53 AM 55.9 °F - 27.0 °F 33% 30.05 in 10.0 mi WSW 6.9 mph - N/A   Clear
12:53 PM 60.1 °F - 28.0 °F 30% 30.03 in 10.0 mi WSW 9.2 mph - N/A   Clear
1:53 PM 64.9 °F - 26.1 °F 23% 30.00 in 10.0 mi SW 13.8 mph 21.9 mph N/A   Clear
2:53 PM 66.2 °F - 24.8 °F 21% 29.96 in 10.0 mi SW 17.3 mph 23.0 mph N/A   Partly Cloudy
3:53 PM 66.9 °F - 25.0 °F 21% 29.93 in 10.0 mi SW 19.6 mph 26.5 mph N/A   Clear
4:53 PM 66.9 °F - 23.0 °F 19% 29.89 in 10.0 mi SW 19.6 mph 25.3 mph N/A   Clear
5:53 PM 66.0 °F - 19.9 °F 17% 29.87 in 10.0 mi SW 19.6 mph 25.3 mph N/A   Clear
6:53 PM 63.0 °F - 21.0 °F 20% 29.86 in 10.0 mi SSW 11.5 mph - N/A   Clear
7:53 PM 53.1 °F - 23.0 °F 31% 29.86 in 10.0 mi South 12.7 mph - N/A   Clear
8:53 PM 55.0 °F - 21.0 °F 27% 29.85 in 10.0 mi SSW 12.7 mph - N/A   Clear
9:53 PM 57.0 °F - 19.9 °F 24% 29.83 in 10.0 mi SSW 17.3 mph - N/A   Partly Cloudy
10:53 PM 55.0 °F - 19.9 °F 25% 29.82 in 10.0 mi SSW 16.1 mph - N/A   Clear
11:53 PM 54.0 °F - 19.9 °F 26% 29.80 in 10.0 mi SSW 18.4 mph 25.3 mph N/A   Scattered Clouds